GW6411 Weather Reports


time (UTC)temp
C
wind
direction
speed
KPH
gust
KPH
rain 1hr
cm
rain 24hr
cm
rain mn
cm
humidity
%
barometer
mb
20260504034511 12 125 0.0 0.0 0.00 0.08 0.08 69 1006.0
20260504033018 13 126 0.0 1.6 0.00 0.08 0.08 66 1006.1
20260504031520 13 125 0.0 1.6 0.00 0.08 0.08 64 1006.1
20260504030016 14 125 0.0 1.6 0.00 0.08 0.08 63 1006.0
20260504024519 14 105 0.0 1.6 0.00 0.08 0.08 62 1006.0
20260504023018 15 105 0.0 1.6 0.00 0.08 0.08 59 1005.8
20260504021520 16 86 0.0 3.2 0.00 0.08 0.08 57 1005.7
20260504020021 16 178 0.0 0.0 0.00 0.08 0.08 54 1005.7
20260504014519 17 178 0.0 6.4 0.00 0.08 0.08 51 1005.4
20260504013016 17 150 0.0 1.6 0.00 0.08 0.08 50 1005.4
20260504011514 18 221 0.0 6.4 0.00 0.08 0.08 48 1005.4
20260504010019 18 210 1.6 6.4 0.00 0.08 0.08 46 1005.1
20260504004509 19 119 1.6 8.0 0.00 0.08 0.08 44 1005.2
20260504003007 20 219 0.0 3.2 0.00 0.08 0.08 42 1005.2
20260504001508 20 176 0.0 3.2 0.00 0.08 0.08 40 1005.2
20260504000016 21 197 1.6 4.8 0.00 0.08 0.08 37 1005.2
20260503234522 22 236 0.0 9.7 0.00 0.08 0.08 36 1005.2
20260503233004 22 252 1.6 8.0 0.00 0.08 0.08 35 1005.2
20260503231511 22 286 1.6 12.9 0.00 0.08 0.08 35 1005.4
20260503230015 23 343 3.2 9.7 0.00 0.08 0.08 37 1005.6
20260503224516 23 238 1.6 9.7 0.00 0.08 0.08 36 1005.6
20260503223021 22 218 3.2 14.5 0.00 0.08 0.08 36 1005.7
20260503221506 22 167 3.2 11.3 0.00 0.08 0.08 37 1005.8
20260503220010 22 59 6.4 20.9 0.00 0.08 0.08 37 1005.8
20260503214534 22 214 3.2 11.3 0.00 0.08 0.08 37 1005.9
20260503213019 22 164 4.8 17.7 0.00 0.08 0.08 39 1006.1
20260503211523 21 253 3.2 17.7 0.00 0.08 0.08 39 1006.4
20260503210008 21 213 3.2 14.5 0.00 0.08 0.08 38 1006.6
20260503204512 21 281 3.2 11.3 0.00 0.08 0.08 42 1006.7
20260503203016 21 293 8.0 17.7 0.00 0.08 0.08 38 1006.9
20260503201520 21 33 4.8 16.1 0.00 0.08 0.08 41 1007.0
20260503200034 20 274 6.4 19.3 0.00 0.08 0.08 42 1007.3
20260503194510 20 292 4.8 17.7 0.00 0.08 0.08 42 1007.6
20260503193015 19 227 6.4 17.7 0.00 0.08 0.08 41 1007.9
20260503191519 20 32 6.4 17.7 0.00 0.08 0.08 42 1008.1
20260503190023 19 40 6.4 19.3 0.00 0.08 0.08 41 1008.5
20260503184538 18 294 4.8 14.5 0.00 0.08 0.08 41 1008.5
20260503183028 17 165 1.6 17.7 0.00 0.08 0.08 54 1008.6
20260503181515 17 302 6.4 25.7 0.00 0.08 0.08 54 1009.0
20260503180040 16 326 3.2 17.7 0.00 0.08 0.08 55 1009.2
20260503174531 15 345 4.8 20.9 0.00 0.08 0.08 54 1009.3
20260503173038 16 141 4.8 16.1 0.00 0.08 0.08 52 1009.4
20260503171528 16 299 4.8 14.5 0.00 0.08 0.08 50 1009.7
20260503081537 6 119 0.0 1.6 0.00 0.00 0.00 60 1014.1
20260503071507 6 163 0.0 1.6 0.00 0.00 0.00 60 1014.3
20260503054516 6 129 0.0 1.6 0.00 0.00 0.00 60 1015.0
20260503053020 6 319 0.0 1.6 0.00 0.00 0.00 60 1015.0
20260503051532 6 160 0.0 1.6 0.00 0.00 0.00 61 1015.1
20260503050024 6 167 0.0 0.0 0.00 0.00 0.00 62 1015.2
20260503044507 6 169 0.0 0.0 0.00 0.00 0.00 62 1015.3
20260503043015 6 168 0.0 0.0 0.00 0.00 0.00 63 1015.4
20260503041519 6 168 0.0 0.0 0.00 0.00 0.00 62 1015.5
20260503040025 6 168 0.0 0.0 0.00 0.00 0.00 61 1015.6